FENGYUN 1C DEB

Satellite information

Favourite Embed

Satellite Type and Status

DEBRISIN ORBIT

Key statistics

Satellite FENGYUN 1C DEB at a glance.

Uptime

9555

Days in orbit

Revolutions

≈ 14.2

Per day

Orbit

SSO

Sun Synchronous Orbit

Inclination

98.6

Latest

Satellite identification and parameters

Extended collection of information and parameters for FENGYUN 1C DEB.

Object identification

Identified? True

Debris? True

Object name: FENGYUN 1C DEB

International designator: 1999-025CHQ

Object number (NORAD): 31826

Object ID (CCSDS): 31826

Country: PEOPLES REPUBLIC OF CHINA (PRC)

Current information (Y/N): Y

RCS size: SMALL

Orbital parameters

Period: 101.487 minutes

Inclination: 98.6133 deg

SMA: 7207.188 km

Apoapsis: 918.068 km

Periapsis: 740.038 km

RAAN: 182.8739 deg

Eccentricy: 0.0123509

Argument of periapsis: 289.4493 deg

Mean anomaly: 223.6368 deg

Mean motion: 14.18907143 rev/day

Mean motion (dot): 0.00000548 rev/day2

B* drag term: 0.00026344 1/REarth

Two-line elements (TLE)

Creation date: July 6, 2025, 6:05 p.m.

Reference frame: TEME

Reference center: EARTH

Epoch: July 6, 2025, 11:16 a.m. UTC

TLE line 0: 0 FENGYUN 1C DEB

TLE line 1: 1 31826U 99025CHQ 25187.46986899 .00000548 00000-0 26344-3 0 9996

TLE line 2: 2 31826 98.6133 182.8739 0123509 289.4493 223.6368 14.18907143935554

Live tracking on map

Real-time ground track for satellite FENGYUN 1C DEB.

In-orbit conjunctions

A list of the most updated potential collisions computed for object FENGYUN 1C DEB.

Target Orbit TCA Probability of collision Miss distance Type
CZ-6A DEB LEO 2025-05-18 00:52:44 0.0001046446 240.0 (m) DEBRIS
COSMOS 2251 DEB LEO 2024-11-13 06:28:33 0.0004881578 218.0 (m) DEBRIS
NOAA 17 DEB SSO 2024-11-11 01:50:39 0.0002450763 260.0 (m) DEBRIS

Associated space launch

Chinese polar orbiting meteorological satellite

FENGYUN 1C DEB was lifted into orbit during the mission ‘Long March 4B | Feng Yun 1C’, on board a Long March 4B space rocket.

The launch took place on May 10, 1999, 1:33 a.m. from Launch Complex 7.

For more information about the launch, click the button.

Launch to space Long March 4B | Feng Yun 1C
Long March 4B | Feng Yun 1C

Agency: N/A

Status: Launch Successful

Launch date: May 10, 1999, 1:33 a.m. UTC

Rocket: Long March 4B

Launch pad: Launch Complex 7

Location: Taiyuan Satellite Launch Center, People's Republic of China

...

Latest news about this satellite

There are no fresh news available about this satellite. Check back as we update our databases every day.


Newsletter sign-up

Weekly statistics, charts and insights to help you stay on top of the space industry.